CW0003 Weather Reports


Display with metric or nautical units.
time (UTC)temp
F
wind
direction
speed
MPH
gust
MPH
rain 1hr
in
rain 24hr
in
rain mn
in
humidity
%
barometer
mb
20210125101554 17 222 0.0 1.0 0.00 0.00 0.00 65 1015.2
20210125100143 17 225 0.0 1.0 0.00 0.00 0.00 65 1015.2
20210125094608 17 242 1.0 7.0 0.00 0.00 0.00 64 1015.2
20210125093146 17 215 3.0 6.0 0.00 0.00 0.00 63 1015.0
20210125091617 18 230 0.0 5.0 0.00 0.00 0.00 62 1015.1
20210125090113 18 219 3.0 8.0 0.00 0.00 0.00 62 1015.1
20210125084602 18 188 1.0 8.0 0.00 0.00 0.00 61 1015.1
20210125083044 18 240 2.0 8.0 0.00 0.00 0.00 61 1015.0
20210125081541 19 235 1.0 7.0 0.00 0.00 0.00 61 1015.0
20210125080024 19 251 2.0 9.0 0.00 0.00 0.00 60 1015.1
20210125074629 19 206 4.0 9.0 0.00 0.00 0.00 60 1015.1
20210125073141 19 242 2.0 9.0 0.00 0.00 0.00 60 1015.3
20210125071633 19 224 2.0 11.0 0.00 0.00 0.00 60 1015.3
20210125070116 19 240 3.0 11.0 0.00 0.00 0.00 60 1015.1
20210125064612 19 217 3.0 11.0 0.00 0.00 0.00 59 1015.2
20210125063139 19 207 2.0 9.0 0.00 0.00 0.00 59 1014.9
20210125061617 19 209 1.0 7.0 0.00 0.00 0.00 59 1015.0
20210125060041 19 217 4.0 9.0 0.00 0.00 0.00 58 1014.9
20210125054612 20 234 2.0 6.0 0.00 0.00 0.00 57 1014.7
20210125053051 20 241 1.0 6.0 0.00 0.00 0.00 56 1015.0
20210125051527 20 275 1.0 9.0 0.00 0.00 0.00 56 1014.8
20210125050012 21 225 1.0 10.0 0.00 0.00 0.00 55 1014.8
20210125043211 21 224 1.0 12.0 0.00 0.00 0.00 54 1014.9
20210125041652 22 234 1.0 10.0 0.00 0.00 0.00 53 1014.8
20210125040136 22 215 2.0 11.0 0.00 0.00 0.00 53 1014.6
20210125034630 22 280 5.0 11.0 0.00 0.00 0.00 53 1014.5
20210125033210 22 231 6.0 15.0 0.00 0.00 0.00 53 1014.4
20210125031650 22 231 6.0 12.0 0.00 0.00 0.00 52 1014.4
20210125030135 22 241 2.0 14.0 0.00 0.00 0.00 52 1014.6
20210125024648 22 214 4.0 9.0 0.00 0.00 0.00 52 1014.7
20210125023103 22 242 1.0 9.0 0.00 0.00 0.00 51 1014.6
20210125021639 22 227 2.0 11.0 0.00 0.00 0.00 50 1014.6
20210125020109 23 235 1.0 7.0 0.00 0.00 0.00 50 1014.6
20210125014546 23 240 4.0 10.0 0.00 0.00 0.00 48 1014.6
20210125013046 23 253 1.0 10.0 0.00 0.00 0.00 47 1014.5
20210125011537 23 225 3.0 10.0 0.00 0.00 0.00 47 1014.4
20210125010053 24 248 7.0 16.0 0.00 0.00 0.00 46 1014.3
20210125004526 24 238 4.0 13.0 0.00 0.00 0.00 46 1014.4
20210125003034 24 255 2.0 8.0 0.00 0.00 0.00 45 1014.4
20210125001522 24 246 2.0 10.0 0.00 0.00 0.00 44 1014.5
20210125000026 25 217 5.0 10.0 0.00 0.00 0.00 44 1014.5
20210124234618 25 200 8.0 17.0 0.00 0.00 0.00 43 1014.2
20210124233250 25 227 4.0 14.0 0.00 0.00 0.00 43 1014.3
20210124231608 25 206 4.0 12.0 0.00 0.00 0.00 43 1014.2
20210124230142 25 248 4.0 15.0 0.00 0.00 0.00 43 1014.1
20210124224553 26 236 4.0 11.0 0.00 0.00 0.00 42 1013.8
20210124223109 26 213 7.0 16.0 0.00 0.00 0.00 42 1013.8
20210124221532 26 265 6.0 21.0 0.00 0.00 0.00 42 1013.6
20210124220137 27 225 4.0 16.0 0.00 0.00 0.00 42 1013.3
20210124214552 27 200 2.0 15.0 0.00 0.00 0.00 42 1013.1
20210124213029 28 235 3.0 22.0 0.00 0.00 0.00 41 1012.7
20210124211512 28 235 4.0 19.0 0.00 0.00 0.00 40 1012.5
20210124210113 28 221 7.0 17.0 0.00 0.00 0.00 40 1012.4
20210124204747 28 237 6.0 19.0 0.00 0.00 0.00 39 1012.2
20210124203152 28 229 8.0 17.0 0.00 0.00 0.00 39 1012.0
20210124201705 28 223 5.0 17.0 0.00 0.00 0.00 39 1012.2
20210124200146 29 245 3.0 15.0 0.00 0.00 0.00 38 1011.9
20210124194731 29 225 11.0 21.0 0.00 0.00 0.00 37 1011.7
20210124193148 29 215 9.0 23.0 0.00 0.00 0.00 36 1011.4
20210124191542 29 229 8.0 23.0 0.00 0.00 0.00 36 1011.2
20210124190140 29 215 9.0 21.0 0.00 0.00 0.00 36 1010.9
20210124184539 29 223 11.0 23.0 0.00 0.00 0.00 35 1011.1
20210124183047 29 202 7.0 24.0 0.00 0.00 0.00 37 1011.0
20210124181531 29 203 10.0 24.0 0.00 0.00 0.00 36 1011.1
20210124180036 28 215 8.0 21.0 0.00 0.00 0.00 37 1011.2
20210124174541 28 219 11.0 21.0 0.00 0.00 0.00 39 1010.9
20210124173042 27 205 11.0 21.0 0.00 0.00 0.00 38 1011.4
20210124171523 27 244 6.0 22.0 0.00 0.00 0.00 40 1011.7
20210124170353 27 222 6.0 16.0 0.00 0.00 0.00 40 1011.8
20210124164724 27 224 7.0 17.0 0.00 0.00 0.00 40 1012.0
20210124163115 26 243 9.0 22.0 0.00 0.00 0.00 40 1012.3
20210124161646 26 245 9.0 24.0 0.00 0.00 0.00 42 1012.4
20210124160117 25 29 5.0 20.0 0.00 0.00 0.00 41 1012.6
20210124154615 24 19 9.0 22.0 0.00 0.00 0.00 42 1013.2
20210124153044 24 227 6.0 17.0 0.00 0.00 0.00 42 1013.1
20210124151628 23 23 8.0 24.0 0.00 0.00 0.00 43 1013.3
20210124150211 23 208 9.0 23.0 0.00 0.00 0.00 44 1013.2
20210124144631 22 5 4.0 20.0 0.00 0.00 0.00 44 1013.4
20210124143105 22 236 7.0 16.0 0.00 0.00 0.00 46 1013.4
20210124141525 21 157 8.0 18.0 0.00 0.00 0.00 48 1013.5
20210124140017 20 226 6.0 18.0 0.00 0.00 0.00 47 1013.2
20210124134656 20 263 6.0 18.0 0.00 0.00 0.00 48 1013.3
20210124133144 19 225 7.0 16.0 0.00 0.00 0.00 51 1013.4
20210124131652 18 221 4.0 17.0 0.00 0.00 0.00 52 1013.2
20210124130142 18 221 4.0 11.0 0.00 0.00 0.00 54 1013.2
20210124124650 17 207 6.0 18.0 0.00 0.00 0.00 54 1013.5
20210124123040 17 215 3.0 14.0 0.00 0.00 0.00 56 1013.5
20210124121549 17 244 7.0 17.0 0.00 0.00 0.00 56 1013.3
20210124120025 17 232 5.0 16.0 0.00 0.00 0.00 56 1013.4
20210124114608 17 256 5.0 12.0 0.00 0.00 0.00 56 1013.7
20210124113033 17 221 7.0 13.0 0.00 0.00 0.00 56 1013.5
20210124111704 17 38 5.0 14.0 0.00 0.00 0.00 56 1013.4
20210124110111 17 209 4.0 15.0 0.00 0.00 0.00 56 1013.3
20210124104627 17 201 8.0 24.0 0.00 0.00 0.00 56 1013.1
20210124103058 17 242 5.0 14.0 0.00 0.00 0.00 57 1013.2